Location: Pedholt
(56.0260°N, 10.2097°E)
Time: 05:22:51
(UTC+00:00)

Cosmos 1602 - Pass Details

Date: 14 July 2020
Orbit: 515 x 533 km, 82.5° (Epoch: 14 August)

Event Time Altitude Azimuth Distance (km) Brightness Sun altitude
Exits shadow 00:17:21 15° 167° (SSE) 1,457 5.4 -11.6°
Maximum altitude 00:20:18 49° 96° (E) 684 4.3 -11.5°
Drops below altitude 10° 00:24:03 10° 21° (NNE) 1,770 7.9 -11.3°
Sets 00:26:15 0° 16° (NNE) 2,667 9.6 -11.3°
